GFSNGP_700_rhum_000.txt.gz
RH
39 25 33 69 55 65 67 75 78 67 62 64 73 73 60 66 100 99 96 95 92 94 82 100 94 77 92 84 46 28 19 12 12 25 39 57 77 80 76 73 70 64 47 34
32 30 36 45 42 61 56 72 79 77 75 78 67 64 70 95 100 99 92 84 89 89 100 97 80 71 50 36 24 13 9 11 24 44 65 88 91 84 68 51 29 18 22 25
50 39 41 50 43 50 63 73 76 74 72 63 82 86 91 87 88 85 90 90 83 78 96 83 67 37 24 20 15 11 11 16 37 59 94 93 88 60 23 12 16 22 23 26
60 55 79 55 49 52 53 53 71 76 77 69 90 100 99 91 75 74 96 86 79 90 91 53 31 23 19 15 15 19 23 34 65 84 100 94 68 17 15 23 25 26 25 29
83 87 71 53 57 61 71 65 72 68 68 72 85 92 99 78 76 90 90 82 91 72 45 41 38 32 20 20 21 22 28 67 88 100 99 68 32 16 24 24 19 23 47 63
97 96 82 72 62 68 65 78 77 73 88 96 88 92 86 89 91 79 84 81 59 50 44 44 34 24 21 22 24 31 43 80 89 80 73 59 17 24 24 20 30 52 68 70
99 100 91 82 74 78 93 98 94 99 92 96 96 96 87 60 74 87 81 67 53 64 52 38 29 25 22 26 29 37 66 95 88 76 70 22 23 26 21 34 51 64 63 64
89 97 96 75 94 98 92 84 100 99 95 94 93 79 61 70 82 86 80 70 64 52 40 30 25 23 24 29 40 63 99 100 85 71 29 23 27 22 31 53 64 64 71 79
86 74 88 99 98 86 90 100 100 98 97 84 76 68 73 69 80 74 66 64 50 34 26 25 25 24 26 37 54 95 100 97 78 31 22 27 21 29 51 64 63 73 82 82
99 73 98 97 90 74 76 86 93 98 85 68 45 55 60 55 69 68 60 47 34 29 29 27 25 40 80 77 83 100 97 92 47 22 26 21 25 52 67 62 69 82 83 85
94 88 98 87 82 76 100 99 93 80 60 39 37 45 52 50 52 60 48 29 32 35 30 28 33 40 63 91 99 99 96 77 28 29 23 22 46 62 64 65 75 80 81 90
88 96 95 85 79 96 81 79 76 59 50 57 58 58 62 66 60 36 27 33 35 28 36 48 54 66 85 100 99 97 93 35 32 23 22 43 61 65 58 69 72 74 85 91
98 99 87 91 89 92 90 79 68 61 64 67 68 71 67 62 41 26 33 35 30 43 49 60 65 74 100 99 97 95 42 29 22 23 42 53 59 63 65 75 67 69 89 89
99 95 99 97 89 82 82 78 68 71 75 78 76 69 43 27 26 31 30 35 47 53 65 62 70 89 97 98 95 41 28 22 30 37 39 47 62 64 68 73 67 74 84 90
96 97 91 72 80 84 79 73 68 73 73 66 48 29 28 29 29 27 38 50 56 68 65 67 87 90 98 97 39 30 24 30 33 34 38 54 63 66 71 72 70 69 83 88
93 73 63 82 72 59 57 57 60 60 57 37 27 26 28 31 31 40 46 59 62 66 63 81 80 91 98 42 28 28 30 34 36 40 46 53 66 73 76 75 74 67 78 83
67 68 69 59 51 40 37 50 56 40 29 27 26 25 26 32 36 43 47 61 73 65 75 81 84 98 49 29 25 23 29 39 44 47 51 57 68 78 79 79 78 73 72 80
57 45 43 41 36 39 58 45 30 29 28 27 27 29 37 36 44 44 54 70 78 68 80 77 91 62 30 26 24 24 26 41 47 48 50 63 66 78 81 79 81 81 75 76
32 38 43 45 61 57 32 29 27 26 29 30 36 38 32 45 62 58 60 78 84 69 80 83 84 38 26 25 24 26 28 39 46 46 48 62 67 77 81 81 77 83 83 80
50 58 68 66 43 29 28 29 27 29 32 41 44 35 32 46 54 63 68 87 93 80 85 87 65 31 27 26 24 27 29 37 45 48 47 55 70 83 90 90 84 77 82 86
64 65 51 27 23 28 28 29 33 35 41 44 40 40 45 50 58 70 80 92 100 93 91 85 44 29 27 27 25 26 29 34 42 46 43 48 64 77 85 84 80 72 76 84
44 24 20 26 31 27 28 34 40 41 41 43 46 47 51 56 64 77 83 97 100 99 91 70 39 34 32 30 30 26 28 34 39 38 39 42 47 51 55 56 54 48 51 75
19 23 29 34 33 28 31 37 37 42 46 48 47 54 59 64 75 80 79 96 100 97 88 60 41 41 37 29 29 30 31 36 38 40 39 43 47 51 56 61 62 58 51 48
27 32 32 32 32 38 35 33 39 42 45 43 43 54 61 63 70 81 87 97 99 90 82 69 55 51 46 32 26 28 32 39 42 42 40 49 53 56 59 60 59 60 59 54
32 32 30 32 43 48 42 39 39 39 43 40 46 51 56 74 78 81 74 87 88 81 87 85 67 59 46 34 26 27 33 39 45 45 45 52 58 60 59 56 52 48 47 55
37 37 37 49 60 60 55 49 46 50 47 45 46 51 56 68 83 86 82 80 85 81 82 90 85 68 50 39 32 31 34 40 49 51 51 55 63 66 64 59 52 47 46 48
38 45 60 70 80 76 73 71 69 64 56 60 58 58 57 65 80 91 89 84 90 95 93 96 96 76 56 43 35 34 36 42 50 54 58 60 67 74 71 62 60 67 68 58

GFSNGP_700_rhum_003.txt.gz
RH
50 46 45 47 48 47 45 48 57 59 54 55 61 73 77 84 92 96 99 99 87 88 82 86 78 82 82 84 38 25 19 17 14 12 13 21 51 64 81 78 56 23 36 86
31 53 51 52 48 46 48 56 54 54 55 68 75 75 85 90 98 99 86 86 85 90 90 78 87 87 100 98 100 56 24 40 18 24 29 56 77 98 100 57 23 38 90 100
46 42 47 54 45 50 51 54 66 62 62 68 79 93 89 96 99 91 82 82 83 80 78 90 91 71 90 100 95 75 100 100 100 96 74 94 100 100 100 99 97 100 100 100
48 57 85 68 60 59 60 63 59 60 68 86 92 98 97 94 99 82 70 50 49 68 70 67 60 58 85 98 97 98 99 95 99 99 100 100 100 100 98 99 100 100 100 90
75 74 64 65 70 67 70 62 68 85 94 75 81 92 96 99 82 60 43 43 66 87 75 67 62 76 84 91 92 98 98 97 98 99 99 99 97 100 98 100 100 100 72 68
96 97 79 75 75 88 68 74 95 83 77 73 83 97 99 76 57 41 53 86 90 93 88 84 77 65 76 84 90 92 98 92 100 100 98 98 99 97 100 100 100 56 62 55
100 91 83 75 81 72 86 88 87 80 72 79 93 99 75 52 52 92 87 85 88 83 81 78 38 37 84 85 92 98 92 84 100 99 98 98 98 100 97 100 87 52 53 60
91 99 91 83 87 89 96 99 90 78 84 90 99 81 85 71 86 87 82 81 78 78 79 37 64 87 86 79 96 97 98 93 100 99 99 100 100 100 100 100 59 54 58 61
88 78 76 94 98 96 98 92 98 98 97 94 88 97 95 92 88 86 82 74 79 83 83 87 92 91 92 82 74 76 92 98 97 100 100 100 84 100 100 82 50 56 58 62
94 87 96 92 97 99 97 91 87 87 93 100 100 90 93 90 88 84 77 81 81 87 92 93 93 94 100 63 68 78 93 100 98 97 27 26 81 100 79 47 53 59 58 66
93 93 97 83 94 96 94 70 50 62 86 76 76 95 96 91 85 85 87 89 90 93 93 94 98 100 100 66 77 93 98 97 89 36 31 21 30 50 40 46 56 59 60 70
96 98 86 99 95 97 95 76 70 76 80 78 98 95 89 88 90 91 86 85 90 89 90 98 95 71 60 71 87 91 94 90 45 29 21 31 33 38 40 50 54 54 56 68
88 79 90 91 93 96 74 67 71 76 81 100 96 92 91 92 92 69 88 90 89 70 57 54 58 57 60 78 82 90 96 46 28 22 31 31 29 38 49 57 56 53 53 69
72 74 80 88 97 68 44 60 71 88 83 90 89 71 59 55 34 27 28 32 36 38 40 57 67 62 76 81 86 91 41 30 23 34 34 34 35 46 56 60 63 66 56 62
72 84 90 84 55 53 63 66 48 57 70 46 38 35 29 25 23 24 30 34 40 47 52 68 69 76 86 87 90 44 30 28 32 38 37 39 42 45 56 63 66 68 61 64
83 98 64 62 56 48 49 42 38 36 36 31 30 25 24 26 28 33 32 43 55 48 58 73 67 77 86 94 54 34 25 24 31 42 42 43 47 50 60 67 67 68 69 64
99 59 56 42 30 33 36 36 35 32 29 26 24 22 24 29 36 34 31 42 50 57 66 77 72 79 90 71 36 29 25 24 26 42 46 46 52 56 62 68 68 64 68 72
66 48 22 21 30 33 32 33 32 25 25 24 23 26 33 38 36 31 33 39 48 69 81 87 81 89 94 50 31 27 25 26 28 42 48 49 51 60 68 73 76 74 67 65
39 16 24 30 31 30 35 27 22 25 26 25 28 29 34 38 36 34 41 45 59 78 90 97 94 96 84 37 29 25 24 27 30 42 50 50 50 54 64 76 78 70 59 57
25 28 29 32 32 28 19 21 28 28 28 32 34 32 32 33 34 44 50 57 78 90 97 98 100 99 60 30 27 26 24 27 32 38 43 46 45 48 51 56 54 50 44 40
27 28 27 17 13 16 23 30 30 27 32 37 41 35 30 30 36 47 53 64 80 84 85 100 99 88 46 31 29 27 27 26 32 37 40 40 41 45 48 52 55 56 54 49
25 16 11 15 20 21 26 27 28 33 38 39 42 41 34 30 34 43 60 72 79 93 99 99 97 67 42 40 38 28 28 29 33 37 40 39 43 49 52 54 57 58 56 54
11 14 19 22 23 24 26 28 36 49 48 45 42 40 38 35 37 45 56 75 83 92 100 97 90 67 54 51 44 31 26 29 35 39 41 40 45 54 56 57 57 54 50 44
20 22 22 25 28 31 30 37 53 58 55 48 43 43 44 41 43 52 64 80 76 81 94 90 88 85 74 64 49 34 26 27 34 39 45 47 49 55 61 61 59 56 50 45
22 24 26 29 32 37 48 70 75 74 70 67 68 62 52 56 57 55 60 82 88 80 83 82 86 92 90 82 62 43 33 32 34 39 48 54 55 56 65 68 64 59 62 68
26 28 32 44 50 60 78 80 74 69 69 66 66 64 54 58 66 65 67 74 86 96 97 97 97 96 96 98 84 57 42 36 36 41 49 57 60 63 67 75 75 70 73 80
32 36 49 60 68 78 77 77 79 76 78 75 65 62 60 65 68 67 74 79 80 82 88 96 99 98 99 99 97 67 52 41 38 42 49 58 64 71 75 79 81 82 81 84

GFSNGP_700_rhum_009.txt.gz
RH
29 27 33 37 41 44 44 43 44 42 49 60 65 76 88 79 78 82 86 64 64 75 78 72 39 25 40 44 36 29 29 39 62 67 88 91 96 91 97 95 51 59 90 80
29 44 40 30 34 36 40 45 44 44 50 71 65 80 77 78 78 72 66 60 67 84 68 40 38 53 70 51 39 42 50 58 35 81 92 88 95 98 94 61 59 100 98 73
31 34 30 56 52 52 50 51 53 54 57 73 73 74 78 80 74 67 62 60 80 72 44 48 72 79 72 66 60 55 59 43 64 87 85 94 89 94 92 72 78 100 74 56
30 32 64 59 56 49 55 58 58 58 68 69 69 72 84 78 72 62 64 72 71 47 69 78 82 70 54 59 57 60 32 30 46 63 67 72 82 96 92 76 86 72 51 31
36 37 29 41 50 49 55 55 54 52 56 65 82 92 90 77 68 67 77 67 45 64 74 64 49 45 56 58 57 41 37 45 54 59 53 55 80 98 98 86 76 67 19 51
45 49 72 65 67 63 66 59 57 59 78 79 78 79 76 69 60 47 26 32 44 67 67 65 63 62 54 47 45 65 72 76 69 54 62 66 68 83 96 87 81 30 33 51
49 60 34 34 53 47 69 57 62 64 72 74 84 88 78 61 38 29 45 55 78 84 81 62 56 46 31 44 75 65 68 72 61 64 74 81 85 96 100 91 52 24 40 42
70 90 63 44 57 66 67 72 80 83 87 87 96 97 80 50 34 35 65 81 87 84 59 40 34 28 28 71 76 66 56 58 54 66 73 80 90 100 97 57 23 31 37 51
48 37 42 58 82 86 73 67 81 76 85 83 91 95 82 53 48 63 73 75 57 31 23 22 28 22 41 46 50 51 54 59 61 64 69 83 91 72 27 22 25 31 45 52
70 64 69 84 82 84 83 87 88 89 80 94 96 86 65 55 57 55 47 27 26 19 17 17 18 25 32 39 40 47 62 60 65 68 79 77 40 24 24 26 26 37 49 52
50 64 68 77 76 77 85 87 98 99 100 96 90 79 58 43 36 27 23 19 15 15 15 18 24 28 27 30 46 49 63 64 72 80 58 29 22 28 27 23 27 40 52 52
54 59 56 63 78 88 88 98 98 91 89 67 52 25 24 25 26 21 14 13 13 14 17 22 26 24 28 32 49 55 71 73 85 68 31 22 26 31 31 29 34 46 53 49
50 56 60 82 85 78 93 85 74 91 56 32 15 20 26 25 17 13 12 14 15 16 19 25 23 22 30 41 53 69 74 84 88 44 25 21 26 34 30 33 37 44 54 56
67 67 68 80 97 97 85 80 86 61 27 13 19 26 20 16 13 13 15 16 16 16 18 19 25 30 39 51 64 81 79 86 66 32 23 21 24 36 33 30 31 43 51 61
69 68 82 95 99 93 96 94 64 27 16 21 21 18 15 13 13 15 18 18 18 17 18 26 33 39 52 65 80 85 87 84 46 25 22 23 25 37 36 34 33 41 49 55
78 94 98 99 96 99 94 74 29 15 18 18 16 13 13 14 15 18 21 23 21 21 23 28 35 49 63 74 86 89 87 74 31 24 22 24 27 36 38 34 34 39 39 43
98 99 98 97 98 98 79 32 15 16 18 13 12 14 14 16 18 20 24 27 26 26 29 31 42 57 72 77 83 89 86 44 25 24 23 25 29 35 36 32 36 38 40 41
98 99 98 97 96 76 30 17 19 18 12 12 14 15 17 21 21 23 28 29 29 30 34 36 50 64 75 82 87 89 67 33 27 26 25 25 29 32 33 33 38 38 39 42
98 96 97 95 47 21 21 22 17 12 14 15 15 16 20 22 25 34 36 35 35 35 38 39 50 73 87 90 91 82 50 36 35 26 25 25 29 32 31 35 40 40 42 44
97 97 64 29 36 25 24 14 13 14 14 14 16 20 23 33 43 47 50 49 52 50 45 43 52 75 84 93 93 72 50 45 42 29 24 26 29 32 31 34 40 43 46 46
83 50 64 38 29 22 14 14 12 12 13 18 24 31 43 59 63 57 55 53 58 55 52 51 55 78 78 91 89 74 64 57 48 32 22 25 29 33 32 32 38 44 48 50
73 42 33 33 23 16 14 13 14 14 16 28 40 63 73 68 58 52 57 63 59 56 54 59 60 82 83 84 79 79 80 74 64 47 30 24 28 34 36 38 41 46 53 56
41 41 35 21 16 13 13 15 16 18 31 46 55 70 66 60 64 68 59 66 62 59 60 65 66 76 92 95 92 86 87 88 86 76 51 36 30 33 38 44 47 50 55 61
44 30 20 15 13 13 14 17 25 36 48 54 65 74 70 66 62 75 73 72 65 63 65 63 65 76 80 89 96 100 100 98 98 97 91 61 42 37 39 44 52 55 59 65
22 17 15 15 16 19 22 35 45 55 68 71 84 88 80 86 86 76 73 73 68 66 60 56 60 76 85 85 88 90 96 100 100 99 100 100 73 50 42 44 50 61 63 70
19 19 19 20 26 38 60 68 74 70 67 70 74 76 79 88 89 81 78 71 68 64 56 55 54 56 70 92 99 99 99 98 100 100 100 100 97 70 49 45 49 60 70 72
25 27 31 47 63 71 79 84 87 88 77 74 68 74 87 88 88 86 86 84 71 61 58 52 46 42 44 53 71 93 100 100 99 99 99 100 100 96 78 64 58 60 73 82

GFSNGP_700_rhum_015.txt.gz
RH
31 28 26 31 38 39 38 39 46 34 42 46 49 51 52 60 67 69 75 83 90 96 95 98 69 48 27 15 13 14 13 12 13 12 11 12 13 16 25 35 47 77 85 88
27 24 23 24 27 29 30 32 35 39 37 38 44 48 54 65 74 80 89 96 99 98 93 73 57 34 20 15 16 22 26 20 13 12 13 14 16 20 31 45 49 58 92 88
24 22 30 33 18 19 24 23 30 35 32 47 51 54 60 74 81 89 94 96 94 83 74 65 46 26 16 17 22 35 21 13 12 13 16 16 20 24 35 47 56 73 70 81
23 31 44 15 15 22 26 22 32 34 44 50 54 66 76 81 88 95 95 88 79 75 79 71 31 16 17 28 42 26 13 12 14 18 20 20 29 34 44 55 66 78 86 99
24 31 23 18 18 19 23 24 28 25 33 45 56 64 70 88 95 95 95 84 77 86 80 30 16 19 31 37 22 12 12 13 19 22 19 23 37 45 57 67 80 94 100 100
31 32 42 15 15 18 27 34 22 25 37 39 56 67 68 88 86 89 84 75 90 83 31 15 21 29 30 14 11 12 13 16 20 20 21 34 49 54 66 75 92 100 95 32
34 35 28 19 20 25 50 21 28 33 35 40 52 72 78 87 96 84 77 93 91 31 16 17 19 18 13 12 12 13 14 15 18 24 32 42 57 67 79 81 57 30 27 28
41 44 38 19 24 30 23 30 38 42 44 55 79 95 99 98 98 89 97 91 32 17 15 16 16 13 12 12 12 13 14 15 20 31 40 56 68 78 76 41 29 26 31 27
28 23 23 27 32 38 45 49 49 53 65 82 92 99 84 95 96 99 83 33 18 15 16 16 13 13 12 13 14 15 17 22 28 38 50 73 80 87 48 31 27 33 33 29
32 28 30 39 40 45 58 64 67 78 84 84 96 99 88 97 93 57 35 20 17 17 16 14 13 13 13 14 16 19 19 28 38 49 67 87 92 85 41 27 30 37 34 33
34 30 32 34 39 48 58 70 82 81 80 99 98 99 97 88 58 30 20 19 17 15 14 14 13 13 15 17 20 23 24 35 45 56 84 96 96 65 30 24 29 38 35 34
42 45 50 48 50 55 66 77 70 70 84 99 100 98 95 65 31 17 16 16 15 14 14 13 12 14 19 21 24 26 27 45 58 70 94 99 91 40 26 24 26 36 36 36
55 57 55 55 56 57 62 68 73 86 100 100 98 96 85 31 16 18 18 14 14 14 11 11 14 19 25 26 28 30 31 55 61 75 92 97 62 30 25 27 27 35 38 36
61 59 55 49 53 58 69 87 95 99 99 98 97 92 70 24 36 19 13 14 12 10 11 14 17 25 31 32 31 34 36 60 63 77 88 79 37 29 26 26 32 44 41 36
57 68 68 68 64 70 86 99 96 98 98 97 95 79 73 39 18 13 13 10 9 11 16 22 27 35 38 38 38 39 40 65 75 81 85 49 27 28 26 24 27 37 36 37
71 74 74 78 85 93 99 98 94 98 97 89 64 73 34 16 13 12 9 9 11 18 28 35 37 39 46 52 48 44 48 74 86 87 76 38 32 27 25 24 27 34 35 38
64 62 66 78 95 95 99 99 97 95 82 91 88 52 16 14 10 10 11 15 24 35 42 41 38 40 46 53 51 49 56 75 91 93 65 41 40 29 25 24 26 33 35 39
66 71 93 100 99 99 97 96 92 88 91 78 48 16 13 10 10 13 16 24 36 47 48 42 44 48 54 57 56 55 60 77 92 93 60 49 46 30 22 24 27 33 34 40
86 84 97 99 98 96 95 94 93 92 68 37 16 12 10 11 14 17 23 35 50 51 48 45 51 56 58 59 59 60 62 78 90 85 70 59 55 44 25 23 27 32 34 36
98 99 98 97 96 95 94 90 74 57 29 16 13 12 12 14 20 28 36 45 63 59 54 48 55 60 62 58 59 60 62 80 84 82 78 72 70 65 45 26 24 30 35 36
96 96 95 95 95 92 82 70 42 25 18 14 12 12 14 21 39 47 52 57 62 60 56 53 66 65 59 57 59 55 58 73 87 89 85 85 87 90 86 62 39 30 34 40
93 92 93 93 91 70 50 38 26 19 15 14 15 17 24 40 55 59 66 65 56 57 54 60 70 69 61 59 60 53 53 67 78 86 96 98 98 99 100 98 93 73 45 38
98 97 94 89 72 51 35 22 18 17 18 19 23 36 52 58 64 68 70 64 50 46 53 68 76 75 73 68 59 55 53 56 70 87 94 97 100 100 100 100 100 100 100 92
93 86 65 53 37 26 22 22 21 23 26 36 54 68 75 76 74 80 79 68 61 50 59 69 75 83 83 70 60 55 48 42 41 45 57 86 100 100 100 100 100 100 100 100
60 47 37 32 27 26 27 29 33 42 55 63 70 76 78 84 91 92 94 88 76 57 56 72 82 94 91 72 62 52 44 38 35 34 35 40 52 80 99 100 100 99 99 100
42 36 34 34 35 35 37 38 37 39 46 45 44 38 33 60 87 81 69 68 76 69 63 79 92 99 94 87 65 50 38 30 28 27 26 25 31 49 69 83 100 100 99 99
41 40 40 40 45 47 48 47 41 28 21 20 18 22 26 32 48 52 68 94 92 79 85 95 100 98 95 94 71 47 34 30 30 29 28 27 28 34 56 75 96 100 100 99

GFSNGP_700_rhum_021.txt.gz
RH
33 25 23 25 26 26 26 23 26 14 15 14 17 23 32 44 54 54 59 68 76 87 95 99 97 95 99 91 83 58 27 19 16 13 11 10 9 9 10 11 16 20 30 42
34 32 29 25 21 19 21 22 21 20 12 14 19 23 27 36 46 50 59 70 84 93 100 98 97 99 83 83 72 35 20 17 14 12 11 10 10 11 12 14 21 27 38 51
27 23 30 32 13 13 12 10 11 16 11 18 18 22 25 34 42 52 64 77 90 99 96 100 99 82 85 83 48 20 16 15 14 13 11 10 11 13 14 19 27 34 47 62
26 26 44 14 12 12 12 11 11 10 11 18 22 24 22 26 27 32 54 74 93 100 96 99 92 88 91 64 22 17 16 14 14 12 10 11 14 16 18 26 34 43 58 73
22 29 17 13 13 14 15 14 13 13 14 23 30 31 24 26 25 30 61 88 94 92 99 97 98 97 76 26 16 16 15 14 13 11 11 13 19 19 23 32 42 57 71 65
29 29 48 17 15 15 16 19 15 17 20 30 37 31 33 32 33 39 68 96 100 97 92 98 96 90 31 16 17 15 14 14 11 11 14 19 22 22 31 40 52 67 80 54
37 40 27 19 20 22 28 22 26 26 26 28 29 34 37 42 49 62 75 94 100 99 98 97 95 45 17 18 15 14 14 11 10 13 18 22 24 27 40 50 64 78 84 44
31 40 35 22 24 29 31 30 34 39 41 40 47 50 54 60 80 91 94 98 91 97 97 94 50 29 38 16 14 14 10 9 10 16 23 25 27 35 45 56 72 83 67 30
32 26 26 28 30 32 33 34 39 48 54 61 66 74 82 88 90 96 89 94 100 100 97 62 43 67 28 15 15 10 8 10 15 23 27 29 32 41 47 60 77 82 45 24
28 24 27 33 41 44 47 47 47 48 52 58 72 78 87 94 99 100 99 99 100 93 96 79 84 33 20 24 10 9 13 20 24 28 32 35 35 46 54 68 83 72 33 24
33 36 45 49 52 59 60 64 64 65 64 64 68 81 86 98 94 100 98 98 92 95 94 77 37 40 29 9 9 13 21 23 26 31 41 40 36 52 64 76 81 46 29 24
49 48 63 59 61 64 67 66 67 65 63 64 67 77 87 99 95 99 98 97 95 92 72 48 50 22 10 10 12 21 26 27 31 36 44 43 40 62 72 78 63 32 28 26
52 58 58 60 66 65 66 68 67 66 69 72 80 84 86 100 98 99 96 95 94 70 70 47 13 11 13 15 24 34 32 32 33 44 47 45 46 68 81 80 49 33 29 26
61 63 64 70 75 78 76 82 91 92 92 96 96 100 99 100 98 96 94 92 81 73 44 14 14 16 18 24 36 40 34 36 38 48 51 50 54 70 89 82 46 40 30 27
69 77 82 82 82 78 78 78 80 95 100 99 100 100 100 97 95 94 93 81 65 48 17 16 18 22 29 37 44 42 37 43 47 50 52 53 58 72 94 77 50 46 30 26
67 71 76 78 76 75 80 90 99 100 100 100 98 95 96 96 94 93 83 65 42 17 16 21 26 31 39 45 44 39 36 52 55 51 51 54 62 78 95 72 55 51 30 25
83 84 80 80 81 88 100 99 99 99 98 96 96 95 93 90 85 77 55 26 16 20 24 28 33 43 48 49 44 37 40 54 56 50 53 54 61 81 92 73 63 62 48 27
87 84 80 90 100 100 99 97 98 97 96 95 93 92 90 83 56 26 19 18 19 25 38 36 45 56 62 57 47 44 43 57 62 55 53 53 59 80 84 78 75 73 76 66
71 74 94 100 97 98 97 96 95 94 92 84 69 51 31 21 19 19 20 21 28 38 48 53 63 70 73 71 58 55 52 59 72 66 60 57 56 71 86 88 86 85 89 95
99 99 99 98 96 94 90 83 69 56 46 36 26 21 20 20 21 23 25 31 48 60 59 66 72 80 89 89 74 73 62 64 73 80 70 62 60 67 79 91 98 100 100 100
94 94 93 91 86 78 77 70 54 39 30 25 24 24 25 30 36 38 38 35 46 59 47 50 55 67 89 100 97 92 73 67 82 88 74 65 65 70 76 80 82 92 100 100
93 86 77 75 73 62 51 41 34 31 30 31 33 35 35 34 37 38 40 41 31 30 26 27 34 49 55 55 57 70 80 73 93 96 89 69 58 52 46 40 34 32 36 48
79 65 59 54 50 44 40 38 37 38 39 39 41 44 43 38 35 30 25 25 23 22 24 27 32 39 37 52 83 93 90 93 100 100 97 92 74 49 34 29 27 27 26 26
61 57 54 49 44 43 44 45 45 45 44 44 44 39 34 31 29 26 25 23 22 25 31 37 41 46 55 81 92 96 100 100 100 100 99 98 94 45 32 30 26 22 21 21
59 52 49 48 48 47 44 42 43 46 46 44 42 39 33 25 24 22 22 23 24 27 32 43 57 62 85 94 97 98 100 100 100 100 100 99 96 52 35 30 24 22 24 20
53 51 49 47 49 53 58 56 54 50 47 41 32 24 22 24 26 30 34 37 37 37 44 65 80 73 99 100 100 100 98 100 100 100 100 98 88 50 39 32 28 33 34 23
53 55 58 63 66 66 66 59 47 31 24 22 20 22 22 21 20 19 20 22 34 48 59 96 100 100 100 100 100 100 100 99 100 100 100 100 92 62 47 41 46 43 28 20

GFSNGP_700_rhum_024.txt.gz
RH
39 35 28 23 28 25 30 29 36 19 25 18 26 19 18 18 23 32 46 57 59 63 68 74 83 92 93 99 100 96 83 58 28 18 16 15 14 12 9 10 12 13 15 22
34 35 35 29 24 26 35 33 27 24 20 17 13 16 15 15 20 25 38 47 56 66 73 80 92 99 100 98 97 81 76 44 19 16 15 15 13 10 10 12 14 15 22 31
40 27 34 40 23 21 19 15 15 32 16 26 14 20 21 20 23 22 35 41 50 64 80 91 99 100 99 98 93 89 66 21 16 16 15 14 11 10 10 13 17 20 29 37
31 26 68 23 15 14 13 12 12 13 14 15 18 22 28 30 27 26 23 23 33 64 89 97 99 99 94 97 96 86 27 18 18 15 15 12 9 10 13 17 20 28 40 45
24 41 24 15 13 12 15 15 15 15 15 20 20 32 33 32 28 30 30 30 37 76 98 99 94 94 90 95 96 50 20 19 15 15 12 8 9 12 17 21 24 35 47 59
31 40 82 22 17 17 17 32 23 22 22 21 22 26 40 31 29 31 35 40 43 63 87 85 98 97 100 97 73 30 45 21 17 13 8 8 11 16 23 25 28 40 52 73
46 43 32 25 23 24 37 36 28 27 28 32 35 43 37 40 45 52 56 64 73 81 92 94 100 99 96 90 46 53 20 34 16 8 9 12 17 24 27 29 35 45 60 77
36 41 46 24 26 32 38 29 29 32 40 47 52 54 60 66 73 78 85 89 92 90 91 98 98 98 97 67 77 56 56 16 8 9 13 17 22 29 31 32 42 53 71 82
35 38 30 31 32 36 39 38 39 42 45 47 51 54 56 64 74 81 86 79 90 98 99 99 97 96 95 89 84 67 17 9 9 13 19 21 24 33 36 37 52 62 79 73
36 33 31 40 44 47 50 54 56 57 58 58 58 60 60 62 70 86 93 100 99 95 99 97 94 95 92 91 70 16 9 10 14 23 26 24 27 35 39 43 63 70 80 51
37 36 47 47 49 54 62 65 65 64 67 72 74 76 78 77 83 94 100 100 98 99 96 97 96 94 92 57 13 10 12 15 24 30 26 25 34 42 43 48 72 80 70 40
52 52 48 50 59 65 63 65 66 70 76 79 84 85 83 79 90 98 100 100 99 96 94 94 96 87 50 28 13 14 15 22 29 29 29 31 40 46 46 54 76 83 60 44
52 47 53 60 64 65 70 75 77 78 76 79 84 88 87 92 92 100 100 99 97 95 95 94 85 53 38 21 18 19 22 29 31 31 34 38 45 50 52 55 73 86 58 48
51 56 66 66 76 77 78 79 80 77 76 79 83 88 100 99 100 100 96 96 94 93 94 89 57 29 22 22 26 24 29 37 34 29 34 44 50 53 55 62 81 86 60 51
59 71 84 84 76 78 79 77 78 80 83 96 99 98 99 98 97 95 94 93 92 91 76 52 33 24 26 33 37 39 38 40 36 31 38 55 54 54 54 63 82 86 60 55
78 77 78 83 84 83 83 82 86 91 92 99 100 99 97 96 95 93 87 68 60 44 28 21 25 30 40 44 46 48 49 46 45 44 48 60 59 55 55 63 84 84 66 62
82 88 90 88 82 78 92 98 100 99 96 96 94 92 87 68 46 35 34 27 18 19 20 22 29 38 49 53 51 52 60 64 57 57 53 65 68 63 59 62 82 81 73 70
88 82 71 65 66 82 91 94 96 96 89 78 60 40 30 26 23 20 19 19 20 21 27 38 41 45 49 58 58 62 64 75 75 73 67 62 78 74 66 64 81 87 83 80
67 64 66 78 92 96 94 86 76 69 55 42 35 30 26 24 22 21 21 23 27 30 38 46 44 46 49 47 50 46 49 67 86 93 82 69 82 83 71 68 76 89 98 97
87 95 98 94 92 85 72 62 56 48 39 34 30 28 26 26 28 29 31 32 36 40 40 36 36 33 31 28 28 34 42 41 48 62 81 77 92 90 80 76 80 86 92 95
94 91 87 80 70 67 59 47 41 38 35 34 35 36 36 36 36 37 36 32 32 31 28 26 25 24 23 25 30 38 42 40 50 67 92 99 100 97 94 82 75 72 59 46
94 89 79 67 57 48 43 41 40 39 40 40 40 38 36 36 35 36 37 34 33 31 29 26 24 26 32 47 51 53 50 59 88 100 100 100 100 99 97 88 76 51 33 29
76 64 60 52 49 46 44 43 42 41 42 43 43 43 43 43 43 41 35 31 29 26 24 24 25 31 42 70 85 78 78 95 100 100 100 100 100 100 99 97 93 44 32 30
66 60 55 50 47 46 45 46 45 46 46 49 50 48 40 28 21 23 24 24 25 29 34 38 40 39 47 81 100 98 100 100 100 98 100 100 100 100 100 100 98 57 41 30
63 56 52 50 48 47 45 46 49 50 52 48 33 22 19 19 17 14 13 12 12 13 14 16 28 46 61 100 100 100 100 100 100 96 98 100 100 100 100 100 98 58 38 30
60 55 53 52 52 52 55 56 59 54 42 28 19 17 13 9 9 11 13 14 15 15 16 16 18 44 82 100 100 100 100 100 100 100 96 96 99 100 100 100 100 82 50 56
59 58 60 61 64 65 67 66 56 35 23 19 13 10 11 14 16 17 18 17 16 16 16 18 26 65 100 100 100 100 100 100 100 100 100 95 96 99 100 100 99 93 92 82

GFSNGP_700_rhum_030.txt.gz
RH
30 32 39 39 32 30 29 30 34 32 26 22 19 22 24 26 32 37 40 54 66 74 83 94 100 94 94 86 74 73 92 100 100 100 99 97 93 49 22 40 22 38 8 9
50 46 43 43 40 36 30 26 27 25 23 22 24 27 27 30 34 36 44 45 55 68 78 93 99 100 98 85 77 64 100 100 99 99 98 100 88 33 23 37 87 15 11 16
51 45 44 35 28 23 28 29 27 28 28 29 29 27 34 37 41 43 41 44 48 65 69 88 98 98 100 99 92 77 100 98 100 100 97 97 83 57 42 89 34 12 14 16
52 42 58 25 29 24 28 31 28 26 27 28 29 31 31 26 37 31 47 58 50 36 45 71 89 95 100 100 96 98 100 100 98 96 96 96 79 63 80 30 17 17 20 21
48 47 34 29 27 26 27 22 31 34 34 34 36 23 32 47 51 48 43 42 39 34 46 52 64 80 84 76 76 100 98 98 97 97 97 92 79 88 48 65 23 19 20 23
33 57 77 46 35 25 19 30 43 36 38 27 26 38 44 56 65 59 50 45 45 46 54 70 77 76 76 78 92 97 97 96 94 95 96 93 90 93 62 20 19 21 22 34
58 46 49 47 44 36 36 55 54 45 31 27 28 42 56 54 45 45 58 67 65 72 83 96 99 95 91 94 99 99 99 98 96 94 95 95 87 53 30 19 21 22 21 32
71 86 67 49 40 39 61 59 44 29 28 33 43 37 42 60 81 81 67 81 81 72 78 85 82 83 91 98 97 99 95 96 95 95 95 79 60 43 20 22 24 24 28 36
51 56 57 46 38 42 48 33 31 41 49 52 58 65 76 74 91 97 87 88 74 72 79 84 93 99 98 100 96 97 96 94 94 93 85 58 46 31 21 21 24 30 34 38
58 44 50 52 54 60 70 54 47 47 52 68 64 63 73 84 96 99 90 79 90 95 100 100 100 100 100 97 96 94 95 93 86 75 57 46 28 21 23 25 26 29 38 41
61 56 53 56 67 71 62 60 49 54 67 62 68 75 74 74 76 84 93 100 100 100 100 99 97 96 95 95 90 69 56 61 56 61 46 29 24 24 27 33 34 35 49 53
62 68 51 58 58 54 53 51 51 60 64 71 71 72 77 79 80 85 92 100 100 99 97 90 89 90 83 68 47 56 61 60 44 34 31 32 29 24 31 39 44 43 51 59
62 49 53 52 46 45 46 54 63 69 70 72 76 77 78 79 80 90 81 80 85 82 82 80 63 46 43 48 43 39 35 32 31 35 40 43 42 39 30 32 48 53 51 63
44 48 55 57 51 47 60 66 71 72 78 80 77 74 68 64 62 66 76 82 83 66 46 34 30 27 26 25 21 20 22 25 31 41 46 52 51 41 39 32 36 55 63 67
52 55 55 60 78 80 79 76 79 82 76 64 58 55 57 61 64 69 72 57 39 28 23 22 20 19 19 20 22 24 30 37 41 43 38 38 32 26 25 30 42 66 77 69
52 65 72 76 80 80 83 86 79 65 54 52 56 62 69 66 55 43 30 26 25 24 23 23 24 24 27 30 34 38 44 52 70 84 82 68 43 34 36 68 65 50 72 77
75 80 79 73 79 84 77 65 56 55 59 66 73 72 66 49 34 29 28 27 27 28 30 30 29 30 33 35 38 38 42 87 92 92 90 87 83 75 82 88 79 80 59 79
77 70 78 83 76 64 58 59 64 71 74 69 59 42 34 31 30 31 32 32 32 32 32 31 31 32 32 35 37 38 37 38 50 86 100 100 98 91 65 50 62 90 93 100
77 79 72 66 63 64 69 75 79 73 58 47 38 34 33 34 34 33 32 32 33 30 26 26 25 23 20 19 21 22 24 28 35 61 88 82 94 83 94 74 69 99 100 100
78 70 69 69 72 75 76 73 67 60 47 39 37 37 38 36 34 32 32 31 31 27 26 23 19 14 12 9 8 9 11 16 26 37 46 99 99 100 97 74 85 100 100 100
78 77 77 79 81 80 77 70 60 47 41 39 40 39 35 33 32 31 32 30 28 23 16 11 9 7 7 9 11 11 12 12 13 19 44 94 100 100 83 96 89 98 100 100
90 84 84 85 87 83 69 51 44 42 42 42 40 38 37 36 36 40 38 29 19 13 9 7 7 9 11 10 11 11 13 15 26 61 58 59 81 82 100 100 100 96 90 99
90 90 92 92 80 58 48 46 45 46 45 42 40 40 41 45 46 39 28 16 10 8 8 10 11 11 9 9 10 11 14 17 24 78 98 100 100 100 99 100 100 100 87 88
96 98 91 72 60 55 52 51 51 48 48 48 48 48 54 52 39 22 14 9 8 11 13 13 11 10 10 11 11 13 17 24 32 48 100 100 100 100 100 100 100 100 96 84
92 80 76 73 68 64 59 58 59 57 59 60 64 65 57 35 20 13 9 9 13 14 14 12 12 13 16 19 23 28 51 78 96 100 100 100 100 100 100 100 100 100 100 90
96 88 88 86 82 72 67 68 72 72 69 71 73 57 32 20 12 10 12 15 17 16 14 15 16 22 31 38 42 55 84 98 100 100 100 100 100 100 100 100 100 100 100 99
97 97 96 93 91 80 78 80 83 84 82 78 54 30 19 11 11 14 18 20 18 17 18 20 26 36 44 51 59 64 78 93 100 100 100 100 100 100 100 100 100 100 100 98

GFSNGP_700_rhum_036.txt.gz
RH
35 30 32 32 40 40 42 38 33 28 29 30 29 31 28 31 32 34 36 39 48 61 73 72 77 83 86 87 95 94 86 73 78 94 99 84 77 98 96 96 88 97 99 99
38 35 31 29 41 40 41 40 39 32 30 33 34 30 29 30 32 36 36 42 45 46 44 44 70 86 87 88 82 87 84 83 100 100 100 99 96 99 91 100 99 99 98 94
33 30 33 43 40 43 40 38 31 40 36 33 33 34 34 33 35 35 34 29 24 25 28 32 50 59 62 56 61 62 77 83 96 100 96 79 96 86 90 100 97 95 91 92
47 48 60 33 31 28 28 28 30 32 34 35 33 33 32 28 25 24 26 27 33 31 30 36 38 41 40 48 64 74 84 98 100 100 99 99 98 100 100 96 94 96 92 71
60 55 40 34 34 30 29 34 33 32 32 32 32 32 27 27 28 29 30 31 36 45 51 50 49 50 56 61 64 68 73 79 84 85 90 100 98 96 93 93 92 67 47 48
62 54 63 32 32 33 30 28 32 39 36 35 33 31 32 31 29 30 35 37 39 41 47 55 56 58 64 75 80 79 80 91 99 99 98 97 95 94 88 66 46 50 40 26
66 56 39 33 42 38 30 30 29 30 34 38 42 37 31 29 31 34 37 44 53 59 60 73 77 81 80 78 86 97 99 99 99 98 97 96 84 77 48 46 50 45 28 20
69 55 53 39 37 43 41 41 40 39 40 39 34 34 33 35 38 48 58 64 70 72 88 94 96 98 99 100 99 90 91 99 98 94 82 77 73 51 48 48 45 23 23 25
48 48 46 45 49 48 45 39 39 40 42 42 40 39 40 43 54 64 69 74 78 98 99 99 98 98 98 100 97 99 98 92 72 77 82 72 49 36 41 41 23 22 25 27
43 52 56 56 54 52 50 47 44 44 47 45 48 47 45 51 57 62 64 66 96 99 99 99 100 100 100 100 94 87 74 75 75 65 52 37 35 36 25 22 22 27 31 31
59 59 63 63 56 53 53 52 53 53 54 59 64 53 53 58 62 66 75 88 100 100 100 98 98 92 85 78 75 74 69 54 43 31 23 21 20 20 23 27 33 37 40 39
56 56 57 54 54 56 58 60 63 66 70 73 59 59 62 64 70 79 84 88 90 90 83 76 80 79 75 68 58 45 28 21 20 21 23 25 26 27 33 38 44 52 67 68
43 47 46 51 54 56 60 65 72 72 60 58 65 69 69 73 81 81 76 74 72 71 74 72 62 48 32 23 22 22 23 24 25 26 26 26 26 29 28 28 65 90 89 91
56 54 56 57 60 63 68 69 64 56 62 69 73 74 77 78 66 62 62 64 65 60 52 38 28 25 24 24 23 22 22 20 19 18 19 20 22 24 29 36 64 64 99 100
62 65 67 69 74 75 70 65 64 70 77 81 82 82 72 61 58 59 59 58 51 39 30 27 26 27 25 24 23 21 21 20 19 17 14 12 11 11 12 15 22 33 56 88
70 72 72 75 78 80 77 74 79 84 88 90 85 67 59 58 60 58 45 33 30 29 29 29 28 26 24 22 22 22 20 16 12 10 9 8 7 7 8 9 10 14 39 70
83 81 83 87 86 83 85 89 91 95 94 74 60 60 62 60 48 40 34 32 32 31 30 29 27 26 26 25 23 19 13 10 9 7 6 6 6 7 7 8 9 11 29 100
81 86 90 89 87 89 95 98 97 80 67 67 72 69 57 49 42 36 36 36 34 33 33 31 31 31 28 24 17 12 10 8 7 6 6 6 5 6 6 7 8 10 12 21
91 99 97 91 87 88 96 89 74 78 90 90 70 61 51 41 38 37 38 38 37 37 36 36 34 32 26 16 10 9 7 7 7 7 6 6 6 7 8 10 13 18 96 99
88 80 82 85 92 90 82 89 95 95 93 78 64 47 40 40 42 42 41 40 41 41 40 40 37 25 14 9 8 8 8 9 8 7 8 9 10 10 12 16 22 39 97 100
82 90 92 88 87 93 96 95 95 94 76 52 44 43 45 46 46 46 48 48 49 49 47 40 24 12 9 8 8 10 11 10 9 10 12 14 14 16 26 62 94 100 100 100
98 94 93 96 96 95 95 95 88 65 52 51 50 50 51 52 53 53 54 55 55 51 40 21 11 8 8 9 12 13 12 12 14 19 24 27 26 26 39 66 99 100 100 100
96 96 96 96 95 95 96 84 65 63 62 59 58 59 59 60 63 64 65 61 53 36 18 11 8 9 11 15 15 14 14 16 22 31 35 40 41 42 59 78 90 91 99 100
96 96 95 95 95 93 80 76 75 74 71 71 70 71 72 72 71 70 63 53 30 18 10 9 10 13 16 17 15 16 19 23 34 41 44 49 56 59 61 71 84 92 98 100
96 95 96 96 95 94 91 89 86 81 80 79 77 74 75 74 74 70 48 28 18 11 10 12 14 18 20 17 18 22 26 34 44 48 53 60 65 69 73 74 77 86 94 100
97 96 96 97 98 96 95 93 91 93 92 89 86 84 83 81 74 44 27 17 11 11 13 16 21 22 19 18 24 29 37 47 55 59 65 68 68 69 75 81 86 88 89 94
98 98 97 98 100 99 98 97 94 94 92 91 90 92 88 66 37 25 15 12 12 15 19 23 25 22 18 24 32 40 51 58 64 66 57 43 39 37 36 38 43 59 81 92